QFA163 YSSY-NZWN

Flight info

Callsign QFA163
Flight time N/A
Altitude 39000
Route CAWLY M636 TANEN DCT SIMZI
Aircraft A21N/M-SDE2E3FGHIRWXY/LB1

Departure

Time N/A
Airport Sydney Kingsford Smith International Airport (YSSY)

Arrival

Time 2026-05-05 15:06
Airport Wellington International Airport (NZWN)
Time Latitude Longitude Altitude Speed Heading
2026-05-05 14:14 -39.80408 167.51725 39287 ft 489 kts 108°
2026-05-05 14:14 -39.82480 167.60129 39289 ft 490 kts 108°
2026-05-05 14:15 -39.84559 167.68593 39298 ft 490 kts 108°
2026-05-05 14:15 -39.86620 167.77010 39298 ft 490 kts 108°
2026-05-05 14:16 -39.88688 167.85489 39300 ft 490 kts 108°
2026-05-05 14:16 -39.90733 167.93904 39300 ft 490 kts 108°
2026-05-05 14:17 -39.92785 168.02378 39308 ft 488 kts 108°
2026-05-05 14:17 -39.94809 168.10769 39311 ft 487 kts 108°
2026-05-05 14:18 -39.96841 168.19220 39311 ft 487 kts 108°
2026-05-05 14:18 -39.98853 168.27618 39319 ft 487 kts 108°
2026-05-05 14:19 -40.00872 168.36077 39316 ft 487 kts 108°
2026-05-05 14:19 -40.02869 168.44470 39322 ft 486 kts 108°
2026-05-05 14:20 -40.04871 168.52922 39322 ft 486 kts 108°
2026-05-05 14:20 -40.06856 168.61326 39325 ft 486 kts 108°
2026-05-05 14:21 -40.08838 168.69754 39335 ft 486 kts 108°
2026-05-05 14:21 -40.10822 168.78217 39330 ft 486 kts 108°
2026-05-05 14:22 -40.12784 168.86618 39327 ft 485 kts 108°
2026-05-05 14:22 -40.14753 168.95082 39327 ft 485 kts 108°
2026-05-05 14:23 -40.16690 169.03441 39024 ft 478 kts 108°
2026-05-05 14:23 -40.17653 169.07607 38742 ft 478 kts 108°
2026-05-05 14:23 -40.18615 169.11776 38459 ft 478 kts 108°
2026-05-05 14:24 -40.20548 169.20173 38552 ft 484 kts 108°
2026-05-05 14:24 -40.21506 169.24348 38812 ft 485 kts 108°
2026-05-05 14:24 -40.22475 169.28577 39112 ft 485 kts 108°
2026-05-05 14:25 -40.23446 169.32824 39354 ft 484 kts 108°
2026-05-05 14:25 -40.24410 169.37051 39372 ft 483 kts 108°
2026-05-05 14:25 -40.26322 169.45454 39346 ft 485 kts 108°
2026-05-05 14:26 -40.28247 169.53947 39346 ft 485 kts 108°
2026-05-05 14:26 -40.30152 169.62383 39346 ft 485 kts 107°
2026-05-05 14:27 -40.32063 169.70877 39348 ft 485 kts 107°
2026-05-05 14:27 -40.33959 169.79337 39352 ft 485 kts 107°
2026-05-05 14:28 -40.35858 169.87841 39357 ft 485 kts 107°
2026-05-05 14:28 -40.37745 169.96326 39357 ft 485 kts 107°
2026-05-05 14:29 -40.39619 170.04785 39360 ft 485 kts 107°
2026-05-05 14:29 -40.41498 170.13300 39360 ft 485 kts 107°
2026-05-05 14:30 -40.43359 170.21762 39362 ft 484 kts 107°
2026-05-05 14:30 -40.44909 170.28843 39362 ft 484 kts 107°
2026-05-05 14:31 -40.46767 170.37351 39366 ft 483 kts 107°
2026-05-05 14:31 -40.48609 170.45823 39365 ft 483 kts 107°
2026-05-05 14:32 -40.50451 170.54326 39371 ft 483 kts 107°
2026-05-05 14:32 -40.52516 170.62686 39373 ft 482 kts 110°
2026-05-05 14:33 -40.54669 170.71046 39373 ft 481 kts 110°
2026-05-05 14:33 -40.56799 170.79368 39379 ft 481 kts 110°
2026-05-05 14:34 -40.58927 170.87733 39379 ft 481 kts 109°
2026-05-05 14:34 -40.61021 170.95996 39382 ft 481 kts 109°
2026-05-05 14:35 -40.63111 171.04272 39382 ft 480 kts 109°
2026-05-05 14:35 -40.65208 171.12607 39384 ft 479 kts 109°
2026-05-05 14:36 -40.67299 171.20948 39387 ft 479 kts 109°
2026-05-05 14:36 -40.69383 171.29289 39389 ft 479 kts 109°
2026-05-05 14:37 -40.71445 171.37569 39392 ft 478 kts 109°
2026-05-05 14:37 -40.73511 171.45897 39393 ft 478 kts 109°
2026-05-05 14:38 -40.75569 171.54223 39395 ft 478 kts 109°
2026-05-05 14:38 -40.77621 171.62552 39395 ft 478 kts 109°
2026-05-05 14:39 -40.79654 171.70834 39398 ft 477 kts 109°
2026-05-05 14:39 -40.81691 171.79161 39398 ft 476 kts 109°
2026-05-05 14:40 -40.83722 171.87490 39400 ft 476 kts 109°
2026-05-05 14:40 -40.85746 171.95824 39409 ft 477 kts 109°
2026-05-05 14:41 -40.87766 172.04169 39411 ft 477 kts 109°
2026-05-05 14:41 -40.89764 172.12456 39410 ft 476 kts 109°
2026-05-05 14:42 -40.91768 172.20796 39411 ft 476 kts 109°
2026-05-05 14:42 -40.93767 172.29143 39414 ft 476 kts 109°
2026-05-05 14:43 -40.95760 172.37499 39417 ft 476 kts 109°
2026-05-05 14:43 -40.97734 172.45802 39416 ft 476 kts 108°
2026-05-05 14:44 -40.99703 172.54120 39204 ft 469 kts 108°
2026-05-05 14:44 -41.00672 172.58223 38456 ft 466 kts 108°
2026-05-05 14:44 -41.01636 172.62315 37538 ft 466 kts 108°
2026-05-05 14:45 -41.02601 172.66411 36627 ft 466 kts 108°
2026-05-05 14:45 -41.03562 172.70502 35750 ft 466 kts 108°
2026-05-05 14:45 -41.04522 172.74598 34970 ft 464 kts 108°
2026-05-05 14:45 -41.05458 172.78595 34345 ft 458 kts 108°
2026-05-05 14:46 -41.06393 172.82602 33586 ft 453 kts 108°
2026-05-05 14:46 -41.07317 172.86563 32848 ft 447 kts 108°
2026-05-05 14:46 -41.08230 172.90485 32112 ft 443 kts 109°
2026-05-05 14:46 -41.09132 172.94368 31418 ft 439 kts 109°
2026-05-05 14:47 -41.10025 172.98215 30733 ft 434 kts 109°
2026-05-05 14:47 -41.10906 173.02020 30003 ft 429 kts 109°
2026-05-05 14:47 -41.11777 173.05787 29273 ft 425 kts 109°
2026-05-05 14:47 -41.12637 173.09509 28552 ft 420 kts 108°
2026-05-05 14:48 -41.13475 173.13146 27865 ft 415 kts 108°
2026-05-05 14:48 -41.14315 173.16791 27193 ft 411 kts 108°
2026-05-05 14:48 -41.15143 173.20393 26558 ft 406 kts 108°
2026-05-05 14:48 -41.15961 173.23958 25907 ft 402 kts 107°
2026-05-05 14:49 -41.16770 173.27492 25278 ft 398 kts 107°
2026-05-05 14:49 -41.17571 173.30993 24652 ft 394 kts 107°
2026-05-05 14:49 -41.18360 173.34450 24193 ft 386 kts 107°
2026-05-05 14:49 -41.19125 173.37803 23940 ft 373 kts 107°
2026-05-05 14:50 -41.19855 173.41014 23442 ft 366 kts 107°
2026-05-05 14:50 -41.20587 173.44233 22773 ft 364 kts 106°
2026-05-05 14:50 -41.21314 173.47434 22150 ft 360 kts 106°
2026-05-05 14:50 -41.22033 173.50609 21552 ft 357 kts 105°
2026-05-05 14:51 -41.22746 173.53758 20952 ft 354 kts 105°
2026-05-05 14:51 -41.23449 173.56868 20436 ft 349 kts 104°
2026-05-05 14:51 -41.24144 173.59944 19830 ft 347 kts 104°
2026-05-05 14:51 -41.24832 173.62997 19268 ft 344 kts 104°
2026-05-05 14:52 -41.25514 173.66030 18687 ft 341 kts 104°
2026-05-05 14:52 -41.26182 173.69002 18053 ft 338 kts 104°
2026-05-05 14:52 -41.26851 173.71985 17415 ft 336 kts 104°
2026-05-05 14:52 -41.27517 173.74955 16779 ft 334 kts 104°
2026-05-05 14:53 -41.28176 173.77901 16152 ft 332 kts 104°
2026-05-05 14:53 -41.28831 173.80832 15577 ft 329 kts 104°
2026-05-05 14:53 -41.29481 173.83743 14980 ft 327 kts 104°
2026-05-05 14:53 -41.30126 173.86637 14406 ft 326 kts 104°
2026-05-05 14:54 -41.30766 173.89513 13803 ft 323 kts 104°
2026-05-05 14:54 -41.31402 173.92369 13162 ft 322 kts 104°
2026-05-05 14:54 -41.32041 173.95176 12535 ft 321 kts 105°
2026-05-05 14:54 -41.32761 173.97978 11920 ft 320 kts 107°
2026-05-05 14:55 -41.33501 174.00751 11443 ft 314 kts 108°
2026-05-05 14:55 -41.34232 174.03474 10897 ft 312 kts 108°
2026-05-05 14:55 -41.34961 174.06192 10247 ft 313 kts 108°
2026-05-05 14:55 -41.35686 174.08902 9678 ft 308 kts 108°
2026-05-05 14:56 -41.36402 174.11583 9061 ft 306 kts 107°
2026-05-05 14:56 -41.37111 174.14245 8449 ft 304 kts 107°
2026-05-05 14:56 -41.37814 174.16885 7837 ft 302 kts 107°
2026-05-05 14:56 -41.38506 174.19485 7245 ft 301 kts 106°
2026-05-05 14:57 -41.39200 174.22101 6662 ft 299 kts 106°
2026-05-05 14:57 -41.39893 174.24717 5966 ft 300 kts 106°
2026-05-05 14:57 -41.40591 174.27357 5201 ft 305 kts 107°
2026-05-05 14:57 -41.41300 174.30038 4494 ft 307 kts 107°
2026-05-05 14:58 -41.42001 174.32683 4029 ft 299 kts 106°
2026-05-05 14:58 -41.42688 174.35281 3574 ft 296 kts 107°
2026-05-05 14:58 -41.43373 174.37878 3369 ft 299 kts 107°
2026-05-05 14:58 -41.44065 174.40504 3348 ft 301 kts 107°
2026-05-05 14:59 -41.44747 174.43095 3355 ft 301 kts 107°
2026-05-05 14:59 -41.45439 174.45723 3357 ft 300 kts 107°
2026-05-05 14:59 -41.46129 174.48351 3360 ft 300 kts 107°
2026-05-05 14:59 -41.46820 174.50981 3366 ft 300 kts 107°
2026-05-05 15:00 -41.47509 174.53609 3368 ft 300 kts 107°
2026-05-05 15:00 -41.47965 174.55351 3362 ft 300 kts 107°
2026-05-05 15:00 -41.48825 174.58871 3329 ft 292 kts 97°
2026-05-05 15:00 -41.48760 174.61448 3339 ft 266 kts 72°
2026-05-05 15:01 -41.48351 174.63734 3378 ft 243 kts 67°
2026-05-05 15:01 -41.47922 174.65815 3204 ft 234 kts 66°
2026-05-05 15:01 -41.47488 174.67880 2996 ft 226 kts 65°
2026-05-05 15:01 -41.47086 174.69848 2976 ft 215 kts 65°
2026-05-05 15:02 -41.46693 174.71772 2984 ft 215 kts 64°
2026-05-05 15:02 -41.46318 174.73703 2981 ft 213 kts 66°
2026-05-05 15:02 -41.45934 174.75578 2783 ft 206 kts 58°
2026-05-05 15:02 -41.45306 174.77243 2463 ft 197 kts 44°
2026-05-05 15:03 -41.44454 174.78527 2314 ft 171 kts 30°
2026-05-05 15:03 -41.43546 174.79381 2050 ft 153 kts 19°
2026-05-05 15:03 -41.42568 174.79888 2250 ft 152 kts
2026-05-05 15:03 -41.41579 174.80126 2122 ft 139 kts 358°
2026-05-05 15:04 -41.40687 174.80199 1929 ft 118 kts 356°
2026-05-05 15:04 -41.39919 174.80252 1752 ft 105 kts 355°
2026-05-05 15:04 -41.39215 174.80295 1475 ft 100 kts 357°
2026-05-05 15:04 -41.38521 174.80333 1162 ft 98 kts
2026-05-05 15:05 -41.37100 174.80403 639 ft 108 kts
2026-05-05 15:05 -41.36355 174.80409 589 ft 112 kts
2026-05-05 15:05 -41.35567 174.80539 419 ft 112 kts
2026-05-05 15:06 -41.34818 174.80547 242 ft 105 kts
2026-05-05 15:06 -41.34075 174.80602 134 ft 116 kts
2026-05-05 15:06 -41.33286 174.80648 27 ft 105 kts
2026-05-05 15:06 -41.32834 174.80699 21 ft 21 kts 33°
2026-05-05 15:07 -41.32826 174.80797 20 ft 19 kts 93°
2026-05-05 15:07 -41.32818 174.80967 21 ft 0 kts 71°
2026-05-05 15:10 0.00000 0.00000 1064 ft 0 kts 355°